Johannesburg B G,

4:32 AM SAST on June 18, 2018 (GMT +0200)
Johannesburg B G

Weather History for FAJB - November, 2017

Change the Weather History Date:

Sunday, November 5, 2017

  Actual Average Record
Temperature  
Mean Temperature 70 °F -  
Max Temperature 86 °F - - ()
Min Temperature 55 °F - - ()
Cooling Degree Days 6    
Growing Degree Days 20 (Base 50)    
Moisture  
Dew Point 40 °F    
Average Humidity 37    
Maximum Humidity 72    
Minimum Humidity 15    
Precipitation  
Precipitation 0.00 in - - ()
Sea Level Pressure  
Sea Level Pressure 30.25 in    
Wind  
Wind Speed 1 mph ()    
Max Wind Speed 4 mph    
Max Gust Speed -    
T = Trace of Precipitation, MM = Missing Value Source: Averaged Metar Reports

Daily Weather History Graph

Daily Weather History Graph

Search for Another Location

Airport or City:

Astronomy

Nov. 05, 2017 Rise Set
Actual Time 5:15 AM SAST 6:27 PM SAST
Civil Twilight 4:51 AM SAST 6:52 PM SAST
Nautical Twilight 4:22 AM SAST 7:21 PM SAST
Astronomical Twilight 3:52 AM SAST 7:50 PM SAST
Moon 7:54 PM SAST (11/5) 6:19 AM SAST (11/5)
Length of Visible Light 14h 00m
Length of Day
13h 11m
Full, 98% of the Moon is Illuminated
Nov 5
Full
Nov 10
Last Quarter
Nov 18
New
Nov 26
First Quarter
Dec 3
Full

Hourly Weather History & Observations

Time (SAST) Temp. Dew Point Humidity Pressure Visibility Wind Dir Wind Speed Gust Speed Precip Events Conditions
1:00 AM 64.4 °F 48.2 °F 56% 30.30 in - ENE 2.3 mph - N/A   Unknown
3:00 AM 62.6 °F 48.2 °F 59% 30.27 in - Calm Calm - N/A   Unknown
4:00 AM 59.0 °F 46.4 °F 63% 30.27 in - East 1.2 mph - N/A   Unknown
5:00 AM 57.2 °F 46.4 °F 67% 30.30 in - Calm Calm - N/A   Unknown
6:00 AM 55.4 °F 46.4 °F 72% 30.30 in - Calm Calm - N/A   Unknown
7:00 AM 62.6 °F 46.4 °F 55% 30.30 in - ENE 2.3 mph - N/A   Unknown
8:00 AM 68.0 °F 46.4 °F 46% 30.33 in - NNE 2.3 mph - N/A   Unknown
9:00 AM 71.6 °F 42.8 °F 35% 30.33 in - NE 2.3 mph - N/A   Unknown
10:00 AM 75.2 °F 39.2 °F 27% 30.30 in - NE 3.5 mph - N/A   Unknown
11:00 AM 78.8 °F 35.6 °F 21% 30.30 in - North 3.5 mph - N/A   Unknown
12:00 PM 80.6 °F 32.0 °F 17% 30.27 in - North 2.3 mph - N/A   Unknown
1:00 PM 84.2 °F 33.8 °F 16% 30.24 in - NW 1.2 mph - N/A   Unknown
3:00 PM 86.0 °F 33.8 °F 15% 30.21 in - NNW 2.3 mph - N/A   Unknown
4:00 PM 86.0 °F 33.8 °F 15% 30.18 in - NNW 2.3 mph - N/A   Unknown
5:00 PM 84.2 °F 32.0 °F 15% 30.18 in - East 1.2 mph - N/A   Unknown
6:00 PM 80.6 °F 37.4 °F 21% 30.18 in - NW 1.2 mph - N/A   Unknown
7:00 PM 75.2 °F 37.4 °F 25% 30.18 in - NW 1.2 mph - N/A   Unknown
8:00 PM 69.8 °F 37.4 °F 31% 30.21 in - Calm Calm - N/A   Unknown
9:00 PM 66.2 °F 37.4 °F 35% 30.21 in - Calm Calm - N/A   Unknown
11:00 PM 62.6 °F 37.4 °F 39% 30.21 in - SSE 1.2 mph - N/A   Unknown